Lexington Weather

Lexington, Massachusetts, USA

32°F
11/15/2019 2:33am 
  • Lexington Conditions: Mostly cloudy
  • Temperature: 32.2°F / 0.1°CWarmer 1.6°F than last hour.
  • Dew Point: 29.8°FIncreased 2.3°Fsince last hour.
  • Relative Humidity: 91%Increased 3.0% since last hour.
  • Wind: Calm, 10-min avg: Calm, gust: 1 mph
  • Barometer: 30.18 inFalling 0.02  inHg/hr Falling Slowly
  • Visibility: 10 miles
  • Snow Today: 0.0 in
  •   

Regional Weather Roundup
for Boston / Norton, MA

        
000
ASUS41 KBOX 130300
RWRBOX

REGIONAL WEATHER ROUNDUP
NATIONAL WEATHER SERVICE BOSTON/NORTON MA
1000 PM EST TUE NOV 12 2019

NOTE:  "FAIR" INDICATES FEW OR NO CLOUDS BELOW 12,000 FEET WITH NO 
SIGNIFICANT WEATHER AND/OR OBSTRUCTIONS TO VISIBILITY.

MAZALL-130400-
EASTERN MASSACHUSETTS
  
CITY           SKY/WX    TMP DP  RH WIND       PRES   REMARKS
BOSTON         CLOUDY    30   6  36 NW22G35   29.98R WCI  17          
BEVERLY        FAIR      25   5  42 W16G25    29.97R WCI  12          
LAWRENCE       FAIR      23   5  46 NW21G31   30.00R WCI   8          
BEDFORD        CLOUDY    26   6  42 NW14G23   29.98R WCI  14          
BLUE HILL      NOT AVBL                                               
NORWOOD        FAIR      29   7  39 W10G21    29.99R WCI  20          
MARSHFIELD     NOT AVBL                                               
PLYMOUTH       FAIR      28  13  53 W16G25    29.96R WCI  16          
TAUNTON        FAIR      29   3  33 NW14G24   29.99R WCI  18          
NEW BEDFORD    FAIR      28   9  44 NW9G28    29.98R WCI  19          
$$

MAZALL-130400-
CAPE COD AND THE ISLANDS
  
CITY           SKY/WX    TMP DP  RH WIND       PRES   REMARKS
FALMOUTH       CLEAR     28  14  54 NW17G29   29.96R WCI  16          
HYANNIS        FAIR      31  14  49 NW10G29   29.94R WCI  22          
CHATHAM        CLOUDY    31  21  66 NW10G20   29.95R WCI  22          
PROVINCETOWN   MOCLDY    31  20  63 NW28G35   29.94R WCI  17          
NANTUCKET      CLOUDY    32  17  54 NW22G33   29.95R WCI  19          
MARTHAS VNYRD  FAIR      30  11  45 NW17G28   29.97R WCI  18          
$$
 
MAZALL-130400-
CENTRAL AND WESTERN MASSACHUSETTS
  
CITY           SKY/WX    TMP DP  RH WIND       PRES   REMARKS
WORCESTER      FAIR      19   1  45 W23G35    29.95R WCI   2          
FITCHBURG      FAIR      23   5  46 NW12G21   30.00R WCI  12          
ORANGE         FAIR      22   2  42 NW18G24   30.02R WCI   7          
SPRINGFIELD    NOT AVBL                                               
WESTFIELD      FAIR      23   6  48 NW21G29   30.06R WCI   8          
NORTH ADAMS    FLURRIES  19   6  57 W14G28    30.03S WCI   6          
PITTSFIELD     FAIR      17   7  64 NW16G23   29.99R WCI   2          
$$
 
RIZALL-130400-
RHODE ISLAND
  
CITY           SKY/WX    TMP DP  RH WIND       PRES   REMARKS
PROVIDENCE     CLOUDY    27  10  49 NW15G23   30.02R WCI  15          
NEWPORT        FAIR      29   9  43 NW21G32   29.99R WCI  16          
BLOCK ISLAND   FAIR      26   7  44 NW20G37   30.03R WCI  12          
SMITHFIELD     FAIR      24   8  50 NW13G21   29.99R WCI  12          
WESTERLY       FAIR      28   3  34 NW8G22    30.05R WCI  20          
$$
 
CTZALL-130400-
CONNECTICUT
  
CITY           SKY/WX    TMP DP  RH WIND       PRES   REMARKS
BRADLEY INTL   FAIR      25   5  42 NW17      30.08R WCI  12          
HARTFORD       FAIR      25   5  42 NW16G26   30.09R WCI  12          
BRIDGEPORT     FAIR      27   7  42 NW12G18   30.11R WCI  17          
DANBURY        FAIR      23   4  44 W10G22    30.10R WCI  12          
GROTON         FAIR      27   5  39 NW24G32   30.06R WCI  12          
NEW HAVEN      FAIR      29   8  41 NW13      30.10R WCI  19          
CHESTER        FAIR      23   5  46 NW13G24   30.05S WCI  11          
MERIDEN        FAIR      24   5  44 NW9       30.09R WCI  14          
WILLIMANTIC    FAIR      24   4  42 NW17G29   30.07R WCI  11          
OXFORD         FAIR      22   8  55 NW9G20    30.06R WCI  12          
$$

MEZ002-015-021-024-NHZ003-005-008-011-012-014-VTZ005-008-130400-
NORTHERN NEW ENGLAND
  
CITY           SKY/WX    TMP DP  RH WIND       PRES   REMARKS
PORTLAND ME    MOCLDY    22  14  71 NW9       29.92R WCI  12          
BANGOR ME      MOCLDY    21  14  74 NW9       29.79R WCI  11          
CONCORD NH     FAIR      19   7  59 NW12      29.98R WCI   7          
MANCHESTER NH  FAIR      23   4  44 W15G25    29.98R WCI  10          
NASHUA NH      FAIR      23   7  50 NW17G25   30.00R WCI   9          
PORTSMOUTH NH  PTCLDY    23   3  42 NW22G31   29.95R WCI   7          
JAFFREY NH     CLOUDY    20   8  60 W9G23     29.95R WCI   9          
KEENE NH       MOCLDY    20   9  62 N9        30.01R WCI   9          
BURLINGTON VT  MOCLDY    15   3  59 W16G24    30.06S WCI  -1          
MT. WASHINGTON BLWGSNOW -11 -11 100 W86G96      N/A  VSB 1/16WCI -53  
$$

NYZ052-076-130400-
EASTERN NEW YORK
  
CITY           SKY/WX    TMP DP  RH WIND       PRES   REMARKS
ALBANY         FAIR      21   8  57 NW18      30.11R WCI   6          
NEW YORK CITY  FAIR      29  12  49 NW21G30   30.15R WCI  16          
$$
 
ANZALL-130400-
MARINE OBSERVATIONS
  
STATION/POSITION TIME  TEMP    WIND        PRES    VSBY  WAVE
                       AIR SEA DIR/SP/G                  HT/PER
                 (UTC) (F)     (DEG/KT/KT) (MB)    (MI)  (FT/S)
BOSTON BUOY      0150   33 53  300/ 25/ 31 1012.8          5/ 5
BUZZARDS BAY     0200          320/ 31/ 34 1015.7R
NANTUCKET SOUND  NOT AVBL
MASS BAY-STELLWA NOT AVBL
ISLE OF SHOALS   0200   26     310/ 27/ 32 1012.9R
S OF BLOCK IS    0230      58                N/A           8/ 6
$$

......................KEY.........................
  SKY/WX - SKY CONDITION/PRESENT WEATHER
  TMP    - TEMPERATURE IN FAHRENHEIT
  DWPT   - DEWPOINT IN FAHRENHEIT
  RH     - RELATIVE HUMIDITY IN PERCENT
  WIND   - DIRECTION AND SPEED IN MPH
  PRES   - MEAN SEA LEVEL PRESSURE IN INCHES OF HG
  WCI    - WIND CHILL INDEX
  VSB    - VISIBILITY IN MILES
  HX     - HEAT INDEX
  TC     - TEMPERATURE IN CELSIUS
  VRB    - VARIABLE WIND DIRECTION
  N/A    - NOT AVAILABLE
  
      

Other recent Regional Weather Roundups

Fri Nov 15, 2:10am

Fri Nov 15, 2:00am

Fri Nov 15, 1:10am

Fri Nov 15, 1:00am

Fri Nov 15, 12:10am

Fri Nov 15, 12:00am

Thu Nov 14, 11:10pm

Thu Nov 14, 11:00pm

Thu Nov 14, 10:10pm

Thu Nov 14, 10:00pm

Thu Nov 14, 9:10pm

Thu Nov 14, 9:00pm

Thu Nov 14, 8:10pm

Thu Nov 14, 8:00pm

Thu Nov 14, 7:10pm

Thu Nov 14, 7:00pm

Thu Nov 14, 6:10pm

Thu Nov 14, 6:01pm

Thu Nov 14, 5:10pm

Thu Nov 14, 5:00pm

Thu Nov 14, 4:10pm

Thu Nov 14, 4:00pm

Thu Nov 14, 3:10pm

Thu Nov 14, 3:00pm

Thu Nov 14, 2:10pm

Thu Nov 14, 2:00pm

Thu Nov 14, 1:10pm

Thu Nov 14, 1:00pm

Thu Nov 14, 12:10pm

Thu Nov 14, 12:01pm

Thu Nov 14, 11:10am

Thu Nov 14, 11:00am

Thu Nov 14, 10:10am

Thu Nov 14, 10:01am

Thu Nov 14, 9:10am

Thu Nov 14, 9:00am

Thu Nov 14, 8:10am

Thu Nov 14, 8:00am

Thu Nov 14, 7:10am

Thu Nov 14, 7:00am

Thu Nov 14, 6:10am

Thu Nov 14, 6:00am

Thu Nov 14, 5:10am

Thu Nov 14, 5:00am

Thu Nov 14, 4:10am

Thu Nov 14, 4:00am

Thu Nov 14, 3:10am

Thu Nov 14, 3:00am

Thu Nov 14, 2:10am

Thu Nov 14, 2:00am

Thu Nov 14, 1:10am

Thu Nov 14, 1:00am

Thu Nov 14, 12:10am

Thu Nov 14, 12:00am

Wed Nov 13, 11:10pm

Wed Nov 13, 11:00pm

Wed Nov 13, 10:10pm

Wed Nov 13, 10:00pm

Wed Nov 13, 9:10pm

Wed Nov 13, 9:00pm

Wed Nov 13, 8:10pm

Wed Nov 13, 8:00pm

Wed Nov 13, 7:10pm

Wed Nov 13, 7:00pm

Wed Nov 13, 6:10pm

Wed Nov 13, 6:01pm

Wed Nov 13, 5:10pm

Wed Nov 13, 5:00pm

Wed Nov 13, 4:10pm

Wed Nov 13, 4:00pm

Wed Nov 13, 3:10pm

Wed Nov 13, 3:01pm

Wed Nov 13, 2:10pm

Wed Nov 13, 2:01pm

Wed Nov 13, 1:10pm

Wed Nov 13, 1:00pm

Wed Nov 13, 12:10pm

Wed Nov 13, 12:01pm

Wed Nov 13, 11:10am

Wed Nov 13, 11:00am

Wed Nov 13, 10:10am

Wed Nov 13, 10:00am

Wed Nov 13, 9:10am

Wed Nov 13, 9:00am

Wed Nov 13, 8:10am

Wed Nov 13, 8:00am

Wed Nov 13, 7:10am

Wed Nov 13, 7:00am

Wed Nov 13, 6:10am

Wed Nov 13, 6:00am

Wed Nov 13, 5:10am

Wed Nov 13, 5:00am

Wed Nov 13, 4:10am

Wed Nov 13, 4:00am

Wed Nov 13, 3:10am

Wed Nov 13, 3:00am

Wed Nov 13, 2:10am

Wed Nov 13, 2:00am

Wed Nov 13, 1:10am

Wed Nov 13, 1:00am

Wed Nov 13, 12:10am

Wed Nov 13, 12:00am

Tue Nov 12, 11:10pm

Tue Nov 12, 11:00pm

Tue Nov 12, 10:10pm

Tue Nov 12, 9:10pm

Tue Nov 12, 9:00pm

Tue Nov 12, 8:10pm

Tue Nov 12, 8:00pm

Tue Nov 12, 7:10pm

Tue Nov 12, 7:01pm

Tue Nov 12, 6:10pm

Tue Nov 12, 6:01pm

Tue Nov 12, 5:10pm

Tue Nov 12, 5:01pm

Tue Nov 12, 4:10pm

Tue Nov 12, 4:01pm

Tue Nov 12, 3:10pm

Tue Nov 12, 3:00pm

Tue Nov 12, 2:10pm

Tue Nov 12, 2:00pm

Tue Nov 12, 1:10pm

Tue Nov 12, 1:00pm

Tue Nov 12, 12:10pm

Tue Nov 12, 12:00pm

Tue Nov 12, 11:10am

Tue Nov 12, 11:00am

Tue Nov 12, 10:10am

Tue Nov 12, 10:01am

Tue Nov 12, 9:10am

Tue Nov 12, 9:00am

Tue Nov 12, 8:10am

Tue Nov 12, 8:00am

Tue Nov 12, 7:10am

Tue Nov 12, 7:00am

Tue Nov 12, 6:10am

Tue Nov 12, 6:00am

Tue Nov 12, 5:10am

Tue Nov 12, 5:01am

Tue Nov 12, 4:10am

Tue Nov 12, 4:00am

Tue Nov 12, 3:10am

Tue Nov 12, 3:01am

Meta data:

ID: 9ee6e25e-ea0a-4ef1-bc5f-6ffad9f28930
Link: https://api.weather.gov/products/9ee6e25e-ea0a-4ef1-bc5f-6ffad9f28930